Location: Koussan�
(15.2012°N, 12.5548°W)
Time: 17:38:11
(UTC+00:00)

Helios 1A Rocket - Pass Details

Date: 20 October 2020
Orbit: 563 x 586 km, 98.3° (Epoch: 30 November)

Event Time Altitude Azimuth Distance (km) Brightness Sun altitude
Rises 19:45:35 0° 175° (S) 2,800 6.5 -19.7°
Reaches altitude 10° 19:47:45 10° 179° (S) 1,902 5.6 -20.2°
Maximum altitude 19:51:49 58° 258° (WSW) 684 3.5 -21.2°
Drops below altitude 10° 19:55:53 10° 338° (NNW) 1,903 5.7 -22.1°
Sets 19:58:03 0° 342° (NNW) 2,801 6.6 -22.7°
